Private Wetterstation Sandau
Wetterdaten: Dienstag, 28.02.2012
Datum Zeit Temp. A. Feuchte A. Luftdruck Regen Wind Richtung Richtung Taupunkt Windchill
28.02.2012 00:02 5,3 C 91 % 1020,4 hPa 0,0 l/m 8,3 km/h (2 Bft) W-NW 292 4,0 C 3,4 C
28.02.2012 00:07 5,3 C 91 % 1020,5 hPa 0,0 l/m 10,1 km/h (2 Bft) SW 225 4,0 C 3,0 C
28.02.2012 00:12 5,3 C 91 % 1020,2 hPa 0,0 l/m 8,6 km/h (2 Bft) W-NW 292 4,0 C 3,3 C
28.02.2012 00:17 5,3 C 92 % 1020,2 hPa 0,0 l/m 7,2 km/h (2 Bft) W 270 4,1 C 3,7 C
28.02.2012 00:22 5,3 C 92 % 1020,2 hPa 0,0 l/m 5,0 km/h (1 Bft) SW 225 4,1 C 4,4 C
28.02.2012 00:27 5,3 C 92 % 1020,3 hPa 0,0 l/m 9,7 km/h (2 Bft) W-NW 292 4,1 C 3,1 C
28.02.2012 00:32 5,4 C 92 % 1020,1 hPa 0,0 l/m 14,0 km/h (3 Bft) SW 225 4,2 C 2,4 C
28.02.2012 00:37 5,4 C 92 % 1020,2 hPa 0,0 l/m 9,7 km/h (2 Bft) W 270 4,2 C 3,2 C
28.02.2012 00:42 5,4 C 92 % 1020,3 hPa 0,0 l/m 2,9 km/h (1 Bft) W-SW 247 4,2 C 5,4 C
28.02.2012 00:47 5,4 C 92 % 1020,2 hPa 0,0 l/m 8,3 km/h (2 Bft) W-SW 247 4,2 C 3,5 C
28.02.2012 00:52 5,4 C 92 % 1020,0 hPa 0,0 l/m 5,0 km/h (1 Bft) S 180 4,2 C 4,5 C
28.02.2012 00:57 5,4 C 92 % 1020,0 hPa 0,0 l/m 0,0 km/h (0 Bft) W-SW 247 4,2 C 5,4 C
28.02.2012 01:02 5,5 C 92 % 1020,2 hPa 0,0 l/m 7,6 km/h (2 Bft) W-SW 247 4,3 C 3,8 C
28.02.2012 01:07 5,5 C 92 % 1020,1 hPa 0,0 l/m 6,1 km/h (2 Bft) W 270 4,3 C 4,3 C
28.02.2012 01:12 5,5 C 92 % 1020,1 hPa 0,0 l/m 2,9 km/h (1 Bft) W 270 4,3 C 5,5 C
28.02.2012 01:17 5,5 C 92 % 1019,8 hPa 0,0 l/m 7,2 km/h (2 Bft) SW 225 4,3 C 3,9 C
28.02.2012 01:22 5,5 C 92 % 1019,8 hPa 0,0 l/m 9,4 km/h (2 Bft) W 270 4,3 C 3,4 C
28.02.2012 01:27 5,5 C 92 % 1020,1 hPa 0,0 l/m 9,0 km/h (2 Bft) W 270 4,3 C 3,5 C
28.02.2012 01:32 5,5 C 92 % 1020,0 hPa 0,0 l/m 14,8 km/h (3 Bft) W 270 4,3 C 2,4 C
28.02.2012 01:37 5,6 C 92 % 1020,1 hPa 0,0 l/m 5,0 km/h (1 Bft) SW 225 4,4 C 4,8 C
28.02.2012 01:42 5,6 C 92 % 1020,1 hPa 0,0 l/m 6,5 km/h (2 Bft) W-SW 247 4,4 C 4,3 C
28.02.2012 01:47 5,6 C 92 % 1020,0 hPa 0,0 l/m 4,7 km/h (1 Bft) W-SW 247 4,4 C 4,9 C
28.02.2012 01:52 5,6 C 92 % 1019,9 hPa 0,0 l/m 15,5 km/h (3 Bft) W-SW 247 4,4 C 2,4 C
28.02.2012 01:57 5,6 C 92 % 1019,9 hPa 0,0 l/m 6,8 km/h (2 Bft) W-SW 247 4,4 C 4,2 C
28.02.2012 02:02 5,6 C 92 % 1019,9 hPa 0,0 l/m 15,5 km/h (3 Bft) W 270 4,4 C 2,4 C
28.02.2012 02:07 5,6 C 92 % 1020,0 hPa 0,0 l/m 6,8 km/h (2 Bft) W 270 4,4 C 4,2 C
28.02.2012 02:12 5,6 C 92 % 1020,1 hPa 0,0 l/m 7,2 km/h (2 Bft) W-NW 292 4,4 C 4,1 C
28.02.2012 02:17 5,6 C 92 % 1020,0 hPa 0,0 l/m 6,8 km/h (2 Bft) W-NW 292 4,4 C 4,2 C
28.02.2012 02:22 5,7 C 92 % 1019,9 hPa 0,0 l/m 9,0 km/h (2 Bft) W-SW 247 4,5 C 3,7 C
28.02.2012 02:27 5,7 C 92 % 1019,7 hPa 0,0 l/m 9,4 km/h (2 Bft) W-SW 247 4,5 C 3,6 C
28.02.2012 02:32 5,8 C 92 % 1019,6 hPa 0,0 l/m 11,9 km/h (2 Bft) W 270 4,6 C 3,2 C
28.02.2012 02:37 5,8 C 92 % 1019,7 hPa 0,0 l/m 8,3 km/h (2 Bft) W-SW 247 4,6 C 4,0 C
28.02.2012 02:42 5,8 C 92 % 1019,6 hPa 0,0 l/m 19,8 km/h (3 Bft) W-SW 247 4,6 C 2,1 C
28.02.2012 02:47 5,8 C 92 % 1019,8 hPa 0,0 l/m 14,8 km/h (3 Bft) W-SW 247 4,6 C 2,8 C
28.02.2012 02:52 5,8 C 92 % 1019,7 hPa 0,0 l/m 5,8 km/h (2 Bft) W 270 4,6 C 4,7 C
28.02.2012 02:57 5,8 C 92 % 1019,8 hPa 0,0 l/m 5,4 km/h (1 Bft) W-SW 247 4,6 C 4,8 C
28.02.2012 03:02 5,8 C 92 % 1019,6 hPa 0,0 l/m 9,0 km/h (2 Bft) W 270 4,6 C 3,8 C
28.02.2012 03:07 5,8 C 92 % 1019,6 hPa 0,0 l/m 4,0 km/h (1 Bft) W-NW 292 4,6 C 5,8 C
28.02.2012 03:12 5,8 C 92 % 1019,6 hPa 0,0 l/m 7,2 km/h (2 Bft) S-SW 202 4,6 C 4,3 C
28.02.2012 03:17 5,8 C 92 % 1019,7 hPa 0,0 l/m 7,6 km/h (2 Bft) W-SW 247 4,6 C 4,2 C
28.02.2012 03:22 5,8 C 92 % 1019,7 hPa 0,0 l/m 7,2 km/h (2 Bft) W-SW 247 4,6 C 4,3 C
28.02.2012 03:27 5,8 C 92 % 1019,5 hPa 0,0 l/m 6,5 km/h (2 Bft) W-SW 247 4,6 C 4,5 C
28.02.2012 03:32 5,8 C 92 % 1019,4 hPa 0,0 l/m 7,6 km/h (2 Bft) W 270 4,6 C 4,2 C
28.02.2012 03:37 5,8 C 92 % 1019,4 hPa 0,0 l/m 8,3 km/h (2 Bft) SW 225 4,6 C 4,0 C
28.02.2012 03:42 5,8 C 92 % 1019,5 hPa 0,0 l/m 11,2 km/h (2 Bft) W 270 4,6 C 3,4 C
28.02.2012 03:47 5,8 C 92 % 1019,5 hPa 0,0 l/m 5,4 km/h (1 Bft) W-SW 247 4,6 C 4,8 C
28.02.2012 03:52 5,8 C 93 % 1019,2 hPa 0,0 l/m 9,0 km/h (2 Bft) W 270 4,8 C 3,8 C
28.02.2012 03:57 5,9 C 93 % 1019,3 hPa 0,0 l/m 9,4 km/h (2 Bft) W-SW 247 4,9 C 3,9 C
28.02.2012 04:02 5,9 C 93 % 1019,3 hPa 0,0 l/m 9,0 km/h (2 Bft) W-SW 247 4,9 C 4,0 C
28.02.2012 04:07 5,9 C 93 % 1019,3 hPa 0,0 l/m 8,3 km/h (2 Bft) W-SW 247 4,9 C 4,1 C
28.02.2012 04:12 5,9 C 93 % 1019,3 hPa 0,0 l/m 17,6 km/h (3 Bft) SW 225 4,9 C 2,5 C
28.02.2012 04:17 5,9 C 93 % 1019,3 hPa 0,0 l/m 5,8 km/h (2 Bft) W-SW 247 4,9 C 4,8 C
28.02.2012 04:22 5,9 C 93 % 1019,4 hPa 0,0 l/m 4,3 km/h (1 Bft) W 270 4,9 C 5,9 C
28.02.2012 04:27 5,9 C 93 % 1019,4 hPa 0,0 l/m 4,0 km/h (1 Bft) W 270 4,9 C 5,9 C
28.02.2012 04:32 6,0 C 93 % 1019,4 hPa 0,0 l/m 5,8 km/h (2 Bft) SW 225 5,0 C 4,9 C
28.02.2012 04:37 6,1 C 93 % 1019,4 hPa 0,0 l/m 5,4 km/h (1 Bft) W 270 5,1 C 5,2 C
28.02.2012 04:42 6,1 C 93 % 1019,3 hPa 0,0 l/m 11,2 km/h (2 Bft) W 270 5,1 C 3,7 C
28.02.2012 04:47 6,1 C 93 % 1019,3 hPa 0,0 l/m 10,8 km/h (2 Bft) W 270 5,1 C 3,8 C
28.02.2012 04:52 6,1 C 93 % 1019,0 hPa 0,0 l/m 11,2 km/h (2 Bft) W 270 5,1 C 3,7 C
28.02.2012 04:57 6,1 C 93 % 1019,1 hPa 0,0 l/m 7,6 km/h (2 Bft) W-NW 292 5,1 C 4,5 C
28.02.2012 05:02 6,1 C 93 % 1019,2 hPa 0,0 l/m 7,6 km/h (2 Bft) W-NW 292 5,1 C 4,5 C
28.02.2012 05:07 6,1 C 93 % 1019,1 hPa 0,0 l/m 14,4 km/h (3 Bft) W-SW 247 5,1 C 3,2 C
28.02.2012 05:12 6,1 C 93 % 1019,3 hPa 0,0 l/m 7,9 km/h (2 Bft) W-NW 292 5,1 C 4,5 C
28.02.2012 05:17 6,1 C 93 % 1019,2 hPa 0,0 l/m 7,6 km/h (2 Bft) SW 225 5,1 C 4,5 C
28.02.2012 05:22 6,1 C 93 % 1019,0 hPa 0,0 l/m 15,8 km/h (3 Bft) W 270 5,1 C 3,0 C
28.02.2012 05:27 6,1 C 93 % 1019,1 hPa 0,0 l/m 7,9 km/h (2 Bft) W 270 5,1 C 4,5 C
28.02.2012 05:32 6,1 C 93 % 1018,9 hPa 0,0 l/m 13,0 km/h (3 Bft) W-SW 247 5,1 C 3,4 C
28.02.2012 05:37 6,1 C 93 % 1019,0 hPa 0,0 l/m 11,9 km/h (2 Bft) W 270 5,1 C 3,6 C
28.02.2012 05:42 6,1 C 93 % 1019,1 hPa 0,0 l/m 4,7 km/h (1 Bft) SW 225 5,1 C 5,4 C
28.02.2012 05:47 6,2 C 93 % 1019,0 hPa 0,0 l/m 13,0 km/h (3 Bft) W-NW 292 5,2 C 3,5 C
28.02.2012 05:52 6,2 C 93 % 1019,0 hPa 0,0 l/m 7,2 km/h (2 Bft) W-NW 292 5,2 C 4,8 C
28.02.2012 05:57 6,2 C 93 % 1019,0 hPa 0,0 l/m 9,7 km/h (2 Bft) W 270 5,2 C 4,2 C
28.02.2012 06:02 6,2 C 93 % 1019,0 hPa 0,0 l/m 18,0 km/h (3 Bft) W-SW 247 5,2 C 2,8 C
28.02.2012 06:07 6,3 C 93 % 1018,8 hPa 0,0 l/m 7,2 km/h (2 Bft) W 270 5,3 C 4,9 C
28.02.2012 06:12 6,3 C 93 % 1019,0 hPa 0,0 l/m 11,5 km/h (2 Bft) W 270 5,3 C 3,9 C
28.02.2012 06:17 6,3 C 93 % 1018,7 hPa 0,0 l/m 10,8 km/h (2 Bft) W-NW 292 5,3 C 4,1 C
28.02.2012 06:22 6,3 C 93 % 1018,9 hPa 0,0 l/m 8,3 km/h (2 Bft) W 270 5,3 C 4,6 C
28.02.2012 06:27 6,3 C 93 % 1018,9 hPa 0,0 l/m 8,6 km/h (2 Bft) W-SW 247 5,3 C 4,5 C
28.02.2012 06:32 6,4 C 93 % 1018,9 hPa 0,0 l/m 15,1 km/h (3 Bft) W 270 5,4 C 3,5 C
28.02.2012 06:37 6,3 C 93 % 1018,7 hPa 0,0 l/m 7,9 km/h (2 Bft) W 270 5,3 C 4,7 C
28.02.2012 06:42 6,4 C 93 % 1018,8 hPa 0,0 l/m 9,0 km/h (2 Bft) SW 225 5,4 C 4,5 C
28.02.2012 06:47 6,3 C 93 % 1018,9 hPa 0,0 l/m 7,9 km/h (2 Bft) W 270 5,3 C 4,7 C
28.02.2012 06:52 6,3 C 93 % 1018,7 hPa 0,0 l/m 14,4 km/h (3 Bft) NW 315 5,3 C 3,4 C
28.02.2012 06:57 6,4 C 93 % 1018,8 hPa 0,0 l/m 6,1 km/h (2 Bft) W-SW 247 5,4 C 5,3 C
28.02.2012 07:02 6,4 C 93 % 1018,8 hPa 0,0 l/m 11,9 km/h (2 Bft) W-SW 247 5,4 C 4,0 C
28.02.2012 07:07 6,4 C 93 % 1019,0 hPa 0,0 l/m 5,0 km/h (1 Bft) W-SW 247 5,4 C 5,7 C
28.02.2012 07:12 6,4 C 93 % 1019,1 hPa 0,0 l/m 6,8 km/h (2 Bft) NW 315 5,4 C 5,1 C
28.02.2012 07:17 6,4 C 93 % 1018,7 hPa 0,0 l/m 20,2 km/h (4 Bft) SW 225 5,4 C 2,8 C
28.02.2012 07:22 6,4 C 93 % 1018,8 hPa 0,0 l/m 8,6 km/h (2 Bft) W 270 5,4 C 4,6 C
28.02.2012 07:27 6,4 C 93 % 1018,7 hPa 0,0 l/m 13,7 km/h (3 Bft) W-NW 292 5,4 C 3,7 C
28.02.2012 07:32 6,4 C 93 % 1018,6 hPa 0,0 l/m 9,7 km/h (2 Bft) W-SW 247 5,4 C 4,4 C
28.02.2012 07:37 6,4 C 93 % 1018,5 hPa 0,0 l/m 7,6 km/h (2 Bft) W 270 5,4 C 4,9 C
28.02.2012 07:42 6,5 C 93 % 1018,6 hPa 0,0 l/m 23,0 km/h (4 Bft) W-SW 247 5,5 C 2,6 C
28.02.2012 07:47 6,5 C 93 % 1018,5 hPa 0,0 l/m 8,6 km/h (2 Bft) W 270 5,5 C 4,8 C
28.02.2012 07:52 6,5 C 93 % 1018,6 hPa 0,0 l/m 6,1 km/h (2 Bft) W 270 5,5 C 5,4 C
28.02.2012 07:57 6,5 C 93 % 1018,5 hPa 0,0 l/m 6,8 km/h (2 Bft) SW 225 5,5 C 5,2 C
28.02.2012 08:02 6,5 C 93 % 1018,4 hPa 0,0 l/m 15,5 km/h (3 Bft) W 270 5,5 C 3,5 C
28.02.2012 08:07 6,5 C 93 % 1018,5 hPa 0,0 l/m 18,7 km/h (3 Bft) W-NW 292 5,5 C 3,1 C
28.02.2012 08:12 6,6 C 93 % 1018,5 hPa 0,0 l/m 10,4 km/h (2 Bft) W 270 5,6 C 4,5 C
28.02.2012 08:17 6,6 C 93 % 1018,6 hPa 0,0 l/m 11,5 km/h (2 Bft) W 270 5,6 C 4,3 C
28.02.2012 08:22 6,6 C 93 % 1018,4 hPa 0,0 l/m 21,6 km/h (4 Bft) W 270 5,6 C 2,9 C
28.02.2012 08:27 6,6 C 93 % 1018,5 hPa 0,0 l/m 9,0 km/h (2 Bft) W-SW 247 5,6 C 4,8 C
28.02.2012 08:32 6,6 C 93 % 1018,6 hPa 0,0 l/m 26,3 km/h (4 Bft) W-SW 247 5,6 C 2,5 C
28.02.2012 08:37 6,7 C 93 % 1018,5 hPa 0,0 l/m 4,0 km/h (1 Bft) W-SW 247 5,6 C 6,7 C
28.02.2012 08:42 6,7 C 93 % 1018,7 hPa 0,0 l/m 13,7 km/h (3 Bft) W-SW 247 5,6 C 4,0 C
28.02.2012 08:47 6,8 C 93 % 1018,5 hPa 0,0 l/m 10,1 km/h (2 Bft) W-NW 292 5,7 C 4,8 C
28.02.2012 08:52 6,8 C 93 % 1018,8 hPa 0,0 l/m 6,1 km/h (2 Bft) W 270 5,7 C 5,8 C
28.02.2012 08:57 6,8 C 93 % 1018,6 hPa 0,0 l/m 9,4 km/h (2 Bft) W 270 5,7 C 4,9 C
28.02.2012 09:02 6,8 C 93 % 1018,7 hPa 0,0 l/m 13,7 km/h (3 Bft) NW 315 5,7 C 4,2 C
28.02.2012 09:07 6,8 C 92 % 1018,9 hPa 0,0 l/m 4,7 km/h (1 Bft) W-SW 247 5,6 C 6,2 C
28.02.2012 09:12 6,8 C 93 % 1018,9 hPa 0,0 l/m 18,4 km/h (3 Bft) W-NW 292 5,7 C 3,5 C
28.02.2012 09:17 6,9 C 93 % 1018,8 hPa 0,0 l/m 12,2 km/h (2 Bft) W 270 5,8 C 4,5 C
28.02.2012 09:22 6,9 C 92 % 1018,6 hPa 0,0 l/m 14,8 km/h (3 Bft) W-NW 292 5,7 C 4,1 C
28.02.2012 09:27 6,9 C 92 % 1018,5 hPa 0,0 l/m 11,2 km/h (2 Bft) W 270 5,7 C 4,7 C
28.02.2012 09:32 6,9 C 92 % 1018,5 hPa 0,0 l/m 13,0 km/h (3 Bft) NW 315 5,7 C 4,4 C
28.02.2012 09:37 6,9 C 92 % 1018,4 hPa 0,0 l/m 11,9 km/h (2 Bft) W-SW 247 5,7 C 4,6 C
28.02.2012 09:42 6,9 C 92 % 1018,6 hPa 0,0 l/m 10,1 km/h (2 Bft) W 270 5,7 C 4,9 C
28.02.2012 09:47 7,0 C 92 % 1018,3 hPa 0,0 l/m 7,2 km/h (2 Bft) W-SW 247 5,8 C 5,7 C
28.02.2012 09:52 7,0 C 92 % 1018,5 hPa 0,0 l/m 11,5 km/h (2 Bft) W-SW 247 5,8 C 4,8 C
28.02.2012 09:57 7,1 C 92 % 1018,6 hPa 0,0 l/m 15,5 km/h (3 Bft) W-NW 292 5,9 C 4,3 C
28.02.2012 10:02 7,1 C 92 % 1018,5 hPa 0,0 l/m 14,8 km/h (3 Bft) W-NW 292 5,9 C 4,4 C
28.02.2012 10:07 7,1 C 92 % 1018,4 hPa 0,0 l/m 17,6 km/h (3 Bft) SW 225 5,9 C 4,0 C
28.02.2012 10:12 7,2 C 92 % 1018,4 hPa 0,0 l/m 13,0 km/h (3 Bft) W 270 6,0 C 4,8 C
28.02.2012 10:17 7,2 C 92 % 1018,2 hPa 0,0 l/m 26,3 km/h (4 Bft) W-SW 247 6,0 C 3,2 C
28.02.2012 10:22 7,4 C 92 % 1018,2 hPa 0,0 l/m 13,3 km/h (3 Bft) W-SW 247 6,2 C 5,0 C
28.02.2012 10:27 7,4 C 92 % 1018,1 hPa 0,0 l/m 14,0 km/h (3 Bft) NW 315 6,2 C 4,9 C
28.02.2012 10:32 7,4 C 92 % 1018,3 hPa 0,0 l/m 7,2 km/h (2 Bft) SW 225 6,2 C 6,1 C
28.02.2012 10:37 7,4 C 92 % 1018,0 hPa 0,0 l/m 9,0 km/h (2 Bft) W-NW 292 6,2 C 5,7 C
28.02.2012 10:42 7,4 C 92 % 1018,1 hPa 0,0 l/m 15,5 km/h (3 Bft) W 270 6,2 C 4,6 C
28.02.2012 10:47 7,5 C 92 % 1018,2 hPa 0,0 l/m 12,2 km/h (2 Bft) W-SW 247 6,3 C 5,3 C
28.02.2012 10:52 7,6 C 92 % 1018,4 hPa 0,0 l/m 19,1 km/h (3 Bft) W 270 6,4 C 4,4 C
28.02.2012 10:57 7,6 C 92 % 1018,3 hPa 0,0 l/m 17,3 km/h (3 Bft) W 270 6,4 C 4,7 C
28.02.2012 11:02 7,6 C 92 % 1018,2 hPa 0,0 l/m 8,6 km/h (2 Bft) SW 225 6,4 C 6,1 C
28.02.2012 11:07 7,6 C 92 % 1018,0 hPa 0,0 l/m 13,7 km/h (3 Bft) W-NW 292 6,4 C 5,1 C
28.02.2012 11:12 7,7 C 92 % 1018,3 hPa 0,0 l/m 14,4 km/h (3 Bft) W 270 6,5 C 5,2 C
28.02.2012 11:17 7,8 C 91 % 1018,1 hPa 0,0 l/m 19,1 km/h (3 Bft) W 270 6,4 C 4,7 C
28.02.2012 11:22 7,8 C 91 % 1018,0 hPa 0,0 l/m 16,9 km/h (3 Bft) W-SW 247 6,4 C 5,0 C
28.02.2012 11:27 7,8 C 91 % 1018,1 hPa 0,0 l/m 7,2 km/h (2 Bft) W 270 6,4 C 6,6 C
28.02.2012 11:32 7,9 C 91 % 1018,0 hPa 0,0 l/m 4,7 km/h (1 Bft) SW 225 6,5 C 7,5 C
28.02.2012 11:37 7,9 C 91 % 1017,9 hPa 0,0 l/m 7,9 km/h (2 Bft) W 270 6,5 C 6,6 C
28.02.2012 11:42 7,9 C 91 % 1017,9 hPa 0,0 l/m 10,8 km/h (2 Bft) W 270 6,5 C 6,0 C
28.02.2012 11:47 7,9 C 91 % 1017,9 hPa 0,0 l/m 11,9 km/h (2 Bft) W 270 6,5 C 5,8 C
28.02.2012 11:52 8,0 C 91 % 1017,8 hPa 0,0 l/m 25,2 km/h (4 Bft) NW 315 6,6 C 4,4 C
28.02.2012 11:57 8,1 C 91 % 1017,8 hPa 0,0 l/m 7,9 km/h (2 Bft) S 180 6,7 C 6,8 C
28.02.2012 12:02 8,1 C 91 % 1017,5 hPa 0,0 l/m 17,6 km/h (3 Bft) W-SW 247 6,7 C 5,2 C
28.02.2012 12:07 8,2 C 91 % 1017,7 hPa 0,0 l/m 9,7 km/h (2 Bft) W 270 6,8 C 6,5 C
28.02.2012 12:12 8,2 C 91 % 1017,7 hPa 0,0 l/m 15,5 km/h (3 Bft) W-NW 292 6,8 C 5,6 C
28.02.2012 12:17 8,3 C 90 % 1017,7 hPa 0,0 l/m 12,2 km/h (2 Bft) W 270 6,8 C 6,2 C
28.02.2012 12:22 8,3 C 90 % 1017,5 hPa 0,0 l/m 16,6 km/h (3 Bft) W 270 6,8 C 5,6 C
28.02.2012 12:27 8,4 C 90 % 1017,4 hPa 0,0 l/m 15,8 km/h (3 Bft) W 270 6,9 C 5,8 C
28.02.2012 12:32 8,4 C 90 % 1017,2 hPa 0,0 l/m 16,6 km/h (3 Bft) W-NW 292 6,9 C 5,7 C
28.02.2012 12:37 8,4 C 90 % 1017,1 hPa 0,0 l/m 21,2 km/h (4 Bft) W-NW 292 6,9 C 5,2 C
28.02.2012 12:42 8,5 C 90 % 1017,3 hPa 0,0 l/m 20,9 km/h (4 Bft) W 270 7,0 C 5,4 C
28.02.2012 12:47 8,6 C 90 % 1016,9 hPa 0,0 l/m 19,1 km/h (3 Bft) W-SW 247 7,1 C 5,7 C
28.02.2012 12:52 8,6 C 90 % 1016,9 hPa 0,0 l/m 18,0 km/h (3 Bft) W 270 7,1 C 5,8 C
28.02.2012 12:57 8,6 C 90 % 1017,0 hPa 0,0 l/m 17,3 km/h (3 Bft) W-NW 292 7,1 C 5,9 C
28.02.2012 13:02 8,6 C 89 % 1016,8 hPa 0,0 l/m 20,9 km/h (4 Bft) W-NW 292 6,9 C 5,5 C
28.02.2012 13:07 8,7 C 89 % 1017,2 hPa 0,0 l/m 19,1 km/h (3 Bft) W-NW 292 7,0 C 5,8 C
28.02.2012 13:12 8,8 C 89 % 1017,1 hPa 0,0 l/m 19,4 km/h (3 Bft) W 270 7,1 C 5,9 C
28.02.2012 13:17 8,8 C 89 % 1017,1 hPa 0,0 l/m 17,3 km/h (3 Bft) W-NW 292 7,1 C 6,2 C
28.02.2012 13:22 8,9 C 89 % 1016,7 hPa 0,0 l/m 16,9 km/h (3 Bft) NW 315 7,2 C 6,3 C
28.02.2012 13:27 8,9 C 89 % 1016,8 hPa 0,0 l/m 19,1 km/h (3 Bft) W 270 7,2 C 6,1 C
28.02.2012 13:32 8,9 C 89 % 1016,8 hPa 0,0 l/m 27,7 km/h (4 Bft) W-NW 292 7,2 C 5,3 C
28.02.2012 13:37 8,9 C 89 % 1016,8 hPa 0,0 l/m 32,0 km/h (5 Bft) W-NW 292 7,2 C 5,0 C
28.02.2012 13:42 9,0 C 89 % 1016,8 hPa 0,0 l/m 19,8 km/h (3 Bft) W-NW 292 7,3 C 6,1 C
28.02.2012 13:47 9,0 C 89 % 1016,8 hPa 0,0 l/m 16,9 km/h (3 Bft) W-NW 292 7,3 C 6,4 C
28.02.2012 13:52 9,1 C 89 % 1016,8 hPa 0,0 l/m 8,3 km/h (2 Bft) N-NW 337 7,4 C 7,9 C
28.02.2012 13:57 9,1 C 89 % 1016,7 hPa 0,0 l/m 23,0 km/h (4 Bft) W-NW 292 7,4 C 6,0 C
28.02.2012 14:02 9,1 C 89 % 1016,7 hPa 0,0 l/m 20,5 km/h (4 Bft) NW 315 7,4 C 6,2 C
28.02.2012 14:07 9,2 C 89 % 1016,8 hPa 0,0 l/m 20,5 km/h (4 Bft) W 270 7,5 C 6,3 C
28.02.2012 14:12 9,2 C 89 % 1016,8 hPa 0,0 l/m 29,5 km/h (5 Bft) W 270 7,5 C 5,6 C
28.02.2012 14:17 9,2 C 89 % 1016,7 hPa 0,0 l/m 31,0 km/h (5 Bft) W-NW 292 7,5 C 5,5 C
28.02.2012 14:22 9,2 C 89 % 1016,7 hPa 0,0 l/m 22,7 km/h (4 Bft) W 270 7,5 C 6,1 C
28.02.2012 14:27 9,3 C 89 % 1016,9 hPa 0,0 l/m 15,8 km/h (3 Bft) W-NW 292 7,6 C 7,0 C
28.02.2012 14:32 9,3 C 89 % 1016,9 hPa 0,0 l/m 18,7 km/h (3 Bft) W-NW 292 7,6 C 6,6 C
28.02.2012 14:37 9,3 C 89 % 1016,7 hPa 0,0 l/m 25,9 km/h (4 Bft) W-SW 247 7,6 C 6,0 C
28.02.2012 14:42 9,3 C 89 % 1016,7 hPa 0,0 l/m 25,2 km/h (4 Bft) NW 315 7,6 C 6,0 C
28.02.2012 14:47 9,3 C 89 % 1016,5 hPa 0,0 l/m 23,0 km/h (4 Bft) W-NW 292 7,6 C 6,2 C
28.02.2012 14:52 9,3 C 89 % 1016,5 hPa 0,0 l/m 13,3 km/h (3 Bft) W-SW 247 7,6 C 7,3 C
28.02.2012 14:57 9,3 C 89 % 1016,4 hPa 0,0 l/m 19,8 km/h (3 Bft) NW 315 7,6 C 6,5 C
28.02.2012 15:02 9,3 C 89 % 1016,4 hPa 0,0 l/m 11,5 km/h (2 Bft) W-NW 292 7,6 C 7,5 C
28.02.2012 15:07 9,4 C 89 % 1016,7 hPa 0,0 l/m 18,7 km/h (3 Bft) NW 315 7,7 C 6,8 C
28.02.2012 15:12 9,4 C 89 % 1016,5 hPa 0,0 l/m 16,6 km/h (3 Bft) W-NW 292 7,7 C 7,0 C
28.02.2012 15:17 9,4 C 89 % 1016,6 hPa 0,0 l/m 16,9 km/h (3 Bft) W 270 7,7 C 6,9 C
28.02.2012 15:22 9,4 C 89 % 1016,8 hPa 0,0 l/m 23,8 km/h (4 Bft) W 270 7,7 C 6,3 C
28.02.2012 15:27 9,4 C 89 % 1016,9 hPa 0,0 l/m 27,7 km/h (4 Bft) W-NW 292 7,7 C 6,0 C
28.02.2012 15:32 9,4 C 89 % 1016,7 hPa 0,0 l/m 22,0 km/h (4 Bft) NW 315 7,7 C 6,4 C
28.02.2012 15:37 9,4 C 89 % 1016,8 hPa 0,0 l/m 24,5 km/h (4 Bft) W 270 7,7 C 6,2 C
28.02.2012 15:42 9,4 C 89 % 1016,7 hPa 0,0 l/m 15,5 km/h (3 Bft) W 270 7,7 C 7,1 C
28.02.2012 15:47 9,5 C 89 % 1016,6 hPa 0,0 l/m 18,4 km/h (3 Bft) W-NW 292 7,8 C 6,9 C
28.02.2012 15:52 9,4 C 89 % 1016,5 hPa 0,0 l/m 19,1 km/h (3 Bft) W-SW 247 7,7 C 6,7 C
28.02.2012 15:57 9,4 C 89 % 1016,7 hPa 0,0 l/m 20,9 km/h (4 Bft) W 270 7,7 C 6,5 C
28.02.2012 16:02 9,4 C 89 % 1016,5 hPa 0,0 l/m 9,7 km/h (2 Bft) W 270 7,7 C 8,0 C
28.02.2012 16:07 9,5 C 90 % 1016,4 hPa 0,0 l/m 20,9 km/h (4 Bft) NW 315 7,9 C 6,7 C
28.02.2012 16:12 9,5 C 90 % 1016,5 hPa 0,0 l/m 17,3 km/h (3 Bft) W 270 7,9 C 7,0 C
28.02.2012 16:17 9,5 C 90 % 1016,7 hPa 0,0 l/m 20,9 km/h (4 Bft) W-NW 292 7,9 C 6,7 C
28.02.2012 16:22 9,5 C 90 % 1016,7 hPa 0,0 l/m 16,6 km/h (3 Bft) W 270 7,9 C 7,1 C
28.02.2012 16:27 9,5 C 90 % 1016,6 hPa 0,0 l/m 20,2 km/h (4 Bft) W 270 7,9 C 6,7 C
28.02.2012 16:32 9,5 C 90 % 1016,7 hPa 0,0 l/m 11,2 km/h (2 Bft) W 270 7,9 C 7,8 C
28.02.2012 16:37 9,6 C 90 % 1016,7 hPa 0,0 l/m 26,6 km/h (4 Bft) NW 315 8,0 C 6,3 C
28.02.2012 16:42 9,6 C 90 % 1016,6 hPa 0,0 l/m 16,9 km/h (3 Bft) W 270 8,0 C 7,2 C
28.02.2012 16:47 9,5 C 90 % 1016,7 hPa 0,0 l/m 23,0 km/h (4 Bft) W-NW 292 7,9 C 6,5 C
28.02.2012 16:52 9,5 C 90 % 1016,7 hPa 0,0 l/m 20,9 km/h (4 Bft) W 270 7,9 C 6,7 C
28.02.2012 16:57 9,5 C 90 % 1016,9 hPa 0,0 l/m 18,0 km/h (3 Bft) W-NW 292 7,9 C 7,0 C
28.02.2012 17:02 9,5 C 90 % 1016,8 hPa 0,0 l/m 15,5 km/h (3 Bft) W-NW 292 7,9 C 7,2 C
28.02.2012 17:07 9,5 C 90 % 1016,7 hPa 0,0 l/m 15,5 km/h (3 Bft) W 270 7,9 C 7,2 C
28.02.2012 17:12 9,5 C 90 % 1016,8 hPa 0,0 l/m 13,7 km/h (3 Bft) NW 315 7,9 C 7,5 C
28.02.2012 17:17 9,5 C 90 % 1016,7 hPa 0,0 l/m 22,0 km/h (4 Bft) W 270 7,9 C 6,6 C
28.02.2012 17:22 9,5 C 90 % 1016,9 hPa 0,0 l/m 13,7 km/h (3 Bft) W 270 7,9 C 7,5 C
28.02.2012 17:27 9,4 C 90 % 1016,9 hPa 0,0 l/m 18,4 km/h (3 Bft) W-NW 292 7,8 C 6,8 C
28.02.2012 17:32 9,5 C 90 % 1016,9 hPa 0,0 l/m 24,5 km/h (4 Bft) W-NW 292 7,9 C 6,3 C
28.02.2012 17:37 9,5 C 91 % 1016,9 hPa 0,0 l/m 21,2 km/h (4 Bft) W-NW 292 8,1 C 6,6 C
28.02.2012 17:42 9,5 C 91 % 1016,7 hPa 0,0 l/m 26,6 km/h (4 Bft) W 270 8,1 C 6,2 C
28.02.2012 17:47 9,5 C 91 % 1016,8 hPa 0,0 l/m 10,1 km/h (2 Bft) W 270 8,1 C 8,0 C
28.02.2012 17:52 9,5 C 91 % 1016,9 hPa 0,0 l/m 16,6 km/h (3 Bft) W 270 8,1 C 7,1 C
28.02.2012 17:57 9,5 C 91 % 1016,8 hPa 0,0 l/m 13,0 km/h (3 Bft) W-NW 292 8,1 C 7,6 C
28.02.2012 18:02 9,5 C 91 % 1017,0 hPa 0,0 l/m 9,7 km/h (2 Bft) W-NW 292 8,1 C 8,1 C
28.02.2012 18:07 9,4 C 91 % 1017,1 hPa 0,0 l/m 24,1 km/h (4 Bft) W 270 8,0 C 6,2 C
28.02.2012 18:12 9,4 C 91 % 1016,9 hPa 0,0 l/m 23,0 km/h (4 Bft) NW 315 8,0 C 6,3 C
28.02.2012 18:17 9,5 C 91 % 1017,0 hPa 0,0 l/m 16,9 km/h (3 Bft) W-NW 292 8,1 C 7,1 C
28.02.2012 18:22 9,5 C 91 % 1017,0 hPa 0,0 l/m 18,0 km/h (3 Bft) W-NW 292 8,1 C 7,0 C
28.02.2012 18:27 9,5 C 91 % 1017,1 hPa 0,0 l/m 11,2 km/h (2 Bft) NW 315 8,1 C 7,8 C
28.02.2012 18:32 9,5 C 91 % 1017,3 hPa 0,0 l/m 14,8 km/h (3 Bft) W 270 8,1 C 7,3 C
28.02.2012 18:37 9,5 C 91 % 1017,4 hPa 0,0 l/m 16,9 km/h (3 Bft) W 270 8,1 C 7,1 C
28.02.2012 18:42 9,5 C 91 % 1017,1 hPa 0,0 l/m 17,3 km/h (3 Bft) W 270 8,1 C 7,0 C
28.02.2012 18:47 9,5 C 91 % 1017,1 hPa 0,0 l/m 13,3 km/h (3 Bft) W-NW 292 8,1 C 7,5 C
28.02.2012 18:52 9,5 C 92 % 1017,2 hPa 0,0 l/m 22,3 km/h (4 Bft) W-NW 292 8,3 C 6,5 C
28.02.2012 18:57 9,5 C 91 % 1017,2 hPa 0,0 l/m 23,0 km/h (4 Bft) W-NW 292 8,1 C 6,5 C
28.02.2012 19:02 9,5 C 92 % 1017,3 hPa 0,0 l/m 16,2 km/h (3 Bft) W 270 8,3 C 7,2 C
28.02.2012 19:07 9,5 C 92 % 1017,0 hPa 0,0 l/m 16,2 km/h (3 Bft) W 270 8,3 C 7,2 C
28.02.2012 19:12 9,5 C 92 % 1017,1 hPa 0,0 l/m 27,4 km/h (4 Bft) W 270 8,3 C 6,1 C
28.02.2012 19:17 9,6 C 92 % 1017,2 hPa 0,0 l/m 23,0 km/h (4 Bft) W-SW 247 8,4 C 6,6 C
28.02.2012 19:22 9,6 C 92 % 1017,4 hPa 0,0 l/m 16,9 km/h (3 Bft) W-NW 292 8,4 C 7,2 C
28.02.2012 19:27 9,6 C 92 % 1017,3 hPa 0,0 l/m 19,1 km/h (3 Bft) W 270 8,4 C 7,0 C
28.02.2012 19:32 9,6 C 92 % 1017,3 hPa 0,0 l/m 25,6 km/h (4 Bft) W-NW 292 8,4 C 6,4 C
28.02.2012 19:37 9,6 C 92 % 1017,6 hPa 0,0 l/m 14,8 km/h (3 Bft) W-NW 292 8,4 C 7,4 C
28.02.2012 19:42 9,6 C 92 % 1017,7 hPa 0,0 l/m 12,6 km/h (3 Bft) W 270 8,4 C 7,7 C
28.02.2012 19:47 9,6 C 92 % 1017,6 hPa 0,0 l/m 25,2 km/h (4 Bft) N 360 8,4 C 6,4 C
28.02.2012 19:52 9,6 C 92 % 1017,6 hPa 0,0 l/m 15,8 km/h (3 Bft) W 270 8,4 C 7,3 C
28.02.2012 19:57 9,6 C 92 % 1017,7 hPa 0,0 l/m 16,2 km/h (3 Bft) W-NW 292 8,4 C 7,3 C
28.02.2012 20:02 9,6 C 92 % 1017,7 hPa 0,0 l/m 16,2 km/h (3 Bft) W-NW 292 8,4 C 7,3 C
28.02.2012 20:07 9,7 C 92 % 1017,6 hPa 0,0 l/m 16,6 km/h (3 Bft) NW 315 8,5 C 7,4 C
28.02.2012 20:12 9,7 C 92 % 1017,4 hPa 0,0 l/m 25,2 km/h (4 Bft) NW 315 8,5 C 6,5 C
28.02.2012 20:17 9,8 C 92 % 1017,4 hPa 0,0 l/m 18,0 km/h (3 Bft) W-NW 292 8,6 C 7,3 C
28.02.2012 20:22 9,8 C 92 % 1017,4 hPa 0,0 l/m 22,0 km/h (4 Bft) N-NW 337 8,6 C 6,9 C
28.02.2012 20:27 9,8 C 92 % 1017,4 hPa 0,0 l/m 16,6 km/h (3 Bft) W-NW 292 8,6 C 7,5 C
28.02.2012 20:32 9,8 C 92 % 1017,5 hPa 0,0 l/m 11,2 km/h (2 Bft) W-NW 292 8,6 C 8,2 C
28.02.2012 20:37 9,8 C 92 % 1017,7 hPa 0,0 l/m 28,1 km/h (4 Bft) W-NW 292 8,6 C 6,4 C
28.02.2012 20:42 9,8 C 92 % 1017,6 hPa 0,0 l/m 14,8 km/h (3 Bft) NW 315 8,6 C 7,7 C
28.02.2012 20:47 9,8 C 92 % 1017,6 hPa 0,0 l/m 31,0 km/h (5 Bft) W 270 8,6 C 6,2 C
28.02.2012 20:52 9,8 C 92 % 1017,8 hPa 0,0 l/m 17,6 km/h (3 Bft) W-NW 292 8,6 C 7,4 C
28.02.2012 20:57 9,8 C 92 % 1017,8 hPa 0,0 l/m 17,3 km/h (3 Bft) W-NW 292 8,6 C 7,4 C
28.02.2012 21:02 9,8 C 92 % 1017,8 hPa 0,0 l/m 23,4 km/h (4 Bft) W 270 8,6 C 6,8 C
28.02.2012 21:07 9,8 C 92 % 1017,7 hPa 0,0 l/m 19,8 km/h (3 Bft) W-NW 292 8,6 C 7,1 C
28.02.2012 21:12 9,8 C 92 % 1017,7 hPa 0,0 l/m 24,8 km/h (4 Bft) NW 315 8,6 C 6,7 C
28.02.2012 21:17 9,9 C 92 % 1017,9 hPa 0,0 l/m 14,4 km/h (3 Bft) W 270 8,7 C 7,9 C
28.02.2012 21:22 9,8 C 92 % 1017,8 hPa 0,0 l/m 20,5 km/h (4 Bft) NW 315 8,6 C 7,1 C
28.02.2012 21:27 9,9 C 92 % 1018,0 hPa 0,0 l/m 33,8 km/h (5 Bft) W-NW 292 8,7 C 6,2 C
28.02.2012 21:32 9,9 C 92 % 1018,0 hPa 0,0 l/m 11,9 km/h (2 Bft) W-NW 292 8,7 C 8,2 C
28.02.2012 21:37 9,9 C 92 % 1018,0 hPa 0,0 l/m 19,1 km/h (3 Bft) W-NW 292 8,7 C 7,3 C
28.02.2012 21:42 9,9 C 92 % 1018,2 hPa 0,0 l/m 12,6 km/h (3 Bft) N 360 8,7 C 8,1 C
28.02.2012 21:47 9,9 C 92 % 1018,1 hPa 0,0 l/m 14,4 km/h (3 Bft) W 270 8,7 C 7,9 C
28.02.2012 21:52 9,9 C 92 % 1018,2 hPa 0,0 l/m 13,3 km/h (3 Bft) W-NW 292 8,7 C 8,0 C
28.02.2012 21:57 9,9 C 92 % 1018,1 hPa 0,0 l/m 10,8 km/h (2 Bft) W 270 8,7 C 8,4 C
28.02.2012 22:02 9,9 C 92 % 1018,4 hPa 0,0 l/m 16,6 km/h (3 Bft) W-SW 247 8,7 C 7,6 C
28.02.2012 22:07 9,9 C 92 % 1018,4 hPa 0,0 l/m 13,3 km/h (3 Bft) W 270 8,7 C 8,0 C
28.02.2012 22:12 9,9 C 92 % 1018,2 hPa 0,0 l/m 18,0 km/h (3 Bft) NW 315 8,7 C 7,5 C
28.02.2012 22:17 9,9 C 92 % 1018,4 hPa 0,0 l/m 14,8 km/h (3 Bft) W 270 8,7 C 7,8 C
28.02.2012 22:22 9,9 C 92 % 1018,3 hPa 0,0 l/m 20,9 km/h (4 Bft) W 270 8,7 C 7,2 C
28.02.2012 22:27 9,9 C 92 % 1018,3 hPa 0,0 l/m 13,7 km/h (3 Bft) W 270 8,7 C 8,0 C
28.02.2012 22:32 9,9 C 92 % 1018,5 hPa 0,0 l/m 7,2 km/h (2 Bft) W 270 8,7 C 9,1 C
28.02.2012 22:37 9,9 C 92 % 1018,7 hPa 0,0 l/m 19,1 km/h (3 Bft) NW 315 8,7 C 7,3 C
28.02.2012 22:42 10,0 C 92 % 1018,4 hPa 0,0 l/m 17,3 km/h (3 Bft) NW 315 8,8 C 7,7 C
28.02.2012 22:47 9,9 C 92 % 1018,5 hPa 0,0 l/m 17,3 km/h (3 Bft) W 270 8,7 C 7,5 C
28.02.2012 22:52 9,9 C 92 % 1018,4 hPa 0,0 l/m 22,7 km/h (4 Bft) W 270 8,7 C 7,0 C
28.02.2012 22:57 9,9 C 92 % 1018,5 hPa 0,0 l/m 13,0 km/h (3 Bft) W-SW 247 8,7 C 8,1 C
28.02.2012 23:02 9,9 C 92 % 1018,5 hPa 0,0 l/m 15,8 km/h (3 Bft) W-NW 292 8,7 C 7,7 C
28.02.2012 23:07 9,9 C 92 % 1018,5 hPa 0,0 l/m 17,6 km/h (3 Bft) W 270 8,7 C 7,5 C
28.02.2012 23:12 9,9 C 92 % 1018,4 hPa 0,0 l/m 14,0 km/h (3 Bft) W-NW 292 8,7 C 7,9 C
28.02.2012 23:17 9,9 C 92 % 1018,5 hPa 0,0 l/m 18,7 km/h (3 Bft) NW 315 8,7 C 7,4 C
28.02.2012 23:22 9,9 C 92 % 1018,5 hPa 0,0 l/m 15,1 km/h (3 Bft) W 270 8,7 C 7,8 C
28.02.2012 23:27 9,9 C 92 % 1018,7 hPa 0,0 l/m 14,8 km/h (3 Bft) W-NW 292 8,7 C 7,8 C
28.02.2012 23:32 9,9 C 92 % 1018,6 hPa 0,0 l/m 9,0 km/h (2 Bft) NW 315 8,7 C 8,7 C
28.02.2012 23:37 9,9 C 92 % 1018,9 hPa 0,0 l/m 11,2 km/h (2 Bft) NW 315 8,7 C 8,3 C
28.02.2012 23:42 9,9 C 92 % 1019,0 hPa 0,0 l/m 7,2 km/h (2 Bft) W-NW 292 8,7 C 9,1 C
28.02.2012 23:47 9,9 C 92 % 1018,9 hPa 0,0 l/m 10,8 km/h (2 Bft) SW 225 8,7 C 8,4 C
28.02.2012 23:52 9,9 C 92 % 1019,0 hPa 0,0 l/m 10,8 km/h (2 Bft) W-NW 292 8,7 C 8,4 C
28.02.2012 23:57 9,9 C 92 % 1019,0 hPa 0,0 l/m 16,2 km/h (3 Bft) NW 315 8,7 C 7,6 C
_ Min-Zeit 00:02 13:02 14:57 - 00:57 - - 00:02 02:42
Minimum _ 5,3 C 89 % 1016,4 hPa - 0,0 km/h (0 Bft) - - 4,0 C 2,1 C
_ Max-Zeit 22:42 03:52 00:07 00:02 21:27 - - 22:42 22:32
Maximum _ 10,0 C 93 % 1020,5 hPa 0,0 l/m 33,8 km/h
W-NW (5 Bft)
- - 8,8 C 9,1 C
Durchschnitt _ 7,9 C 92 % 1018,2 hPa #0,0 l/m 14,3 km/h (3 Bft) W - 6,6 C 5,7 C
(c) by David Heller